SCP
0 0 0 0 0 0 0 0 0 0 0 0 0 0 0 0 0 0 0 0 0 0 0 0 0 0 0 0 0 0 0 0 0 0 0 0 0 0 0 0 0 0 0
0 0 0 0 0 0 0 0 0 0 0 0 0 0 0 0 0 0 0 0 0 0 0 0 0 0 0 0 0 0 0 0 0 0 0 0 0 0 0 0 0 0 0
0 0 0 0 0 0 0 0 0 0 0 0 0 0 0 0 0 0 0 0 0 0 0 0 0 0 0 0 0 0 0 0 0 0 0 0 0 0 0 0 0 0 0
0 0 0 0 0 0 0 0 0 0 0 0 0 0 0 0 0 0 0 0 0 0 0 0 0 0 -0 0 0 0 0 0 0 0 0 0 0 0 0 0 0 0 0
0 0 0 0 0 0 0 0 0 0 0 0 0 0 0 0 0 0 0 0 0 0 0 0 0 0 0 0 0 0 0 0 0 0 0 0 0 0 0 0 0 0 0
0 0 0 0 0 0 0 0 0 0 0 0 0 0 0 0 0 0 0 0 0 0 0 0 0 0 0 0 0 0 0 0 0 0 0 0 0 0 0 0 0 0 0
0 0 0 0 0 0 0 0 0 0 0 0 0 0 0 0 0 0 0 0 0 0 0 0 0 0 0 0 0 0 0 0 0 0 0 0 0 0 0 0 0 0 0
0 0 0 0 0 0 0 0 0 0 0 0 0 0 0 0 0 0 0 0 0 0 0 0 0 0 0 0 0 0 0 0 0 0 0 0 0 0 0 0 0 0 0
0 0 0 0 0 0 0 0 0 0 0 0 0 0 0 0 0 0 0 0 0 0 0 0 0 0 0 0 0 0 0 0 0 0 0 0 0 0 0 0 0 0 0
0 0 0 0 0 0 0 0 0 0 0 0 0 0 0 0 0 0 0 0 0 0 0 0 0 0 0 0 0 0 0 0 0 0 0 0 0 0 0 0 0 0 0
0 0 0 0 0 0 0 0 0 0 0 0 0 0 0 0 0 0 0 0 0 0 0 0 0 0 0 0 0 0 0 0 0 0 0 0 0 0 0 0 0 0 0
0 0 0 0 0 0 0 0 0 0 0 0 0 0 0 0 0 0 0 0 0 0 0 0 0 0 0 0 0 0 0 0 0 0 0 0 0 0 0 0 0 0 0
0 0 0 0 0 0 0 0 0 0 0 0 0 0 0 0 0 0 0 0 0 0 0 0 0 0 0 0 0 0 0 0 0 0 0 0 0 0 0 0 0 0 0
0 0 0 0 0 0 0 0 0 0 0 0 0 0 0 0 0 0 0 0 0 0 0 0 0 0 0 0 0 0 0 0 0 0 0 0 0 0 0 0 0 0 0
0 0 0 0 0 0 0 0 0 0 0 0 0 0 0 0 0 0 0 0 0 0 0 0 0 0 0 0 0 0 0 0 0 0 0 0 0 0 0 0 0 0 0
0 0 0 0 0 0 0 0 0 0 0 0 0 0 0 0 0 0 0 0 0 0 0 0 0 0 0 0 0 0 0 0 0 0 0 0 0 0 0 0 0 0 0
0 0 0 0 0 0 0 0 0 0 0 0 0 0 0 0 0 0 0 0 0 0 0 0 0 0 0 0 0 0 0 0 0 0 0 0 0 0 0 0 0 0 0
0 0 0 0 0 0 0 0 0 0 0 0 0 0 0 0 0 0 0 0 0 0 0 0 0 0 0 0 0 0 0 0 0 0 0 0 0 0 0 0 0 0 0
0 0 0 0 0 0 0 0 0 0 0 0 0 0 0 0 0 0 0 0 0 0 0 0 0 0 0 0 0 0 0 0 0 0 0 0 0 0 0 0 0 0 0
0 0 0 0 0 0 0 0 0 0 0 0 0 0 0 0 0 0 0 0 0 0 0 0 0 0 0 0 0 0 0 0 0 0 0 0 0 0 0 0 0 0 0
0 0 0 0 0 0 0 0 0 0 0 0 0 0 0 0 0 0 0 0 0 0 0 0 0 0 0 0 0 0 0 0 0 0 0 0 0 0 0 0 0 0 0
0 0 0 0 0 0 0 0 0 0 0 0 0 0 0 0 0 0 0 0 0 0 0 0 0 0 0 0 0 0 0 0 0 0 0 0 0 0 0 0 0 0 0
0 0 0 0 0 0 0 0 0 0 0 0 0 0 0 0 0 0 0 0 0 0 0 0 0 0 0 0 0 0 0 0 0 0 0 0 0 0 0 0 0 0 0
0 0 0 0 0 0 0 0 0 0 0 0 0 0 0 0 0 0 0 0 0 0 0 0 0 0 0 0 0 0 0 0 0 0 0 0 0 0 0 0 0 0 0
0 0 0 0 0 0 0 0 0 0 0 0 0 0 0 0 0 0 0 0 0 0 0 0 0 0 0 0 0 0 0 0 0 0 0 0 0 0 0 0 0 0 0
0 0 0 0 0 0 0 0 0 0 0 0 0 0 0 0 0 0 0 0 0 0 0 0 0 0 0 0 0 0 0 0 0 0 0 0 0 0 0 0 0 0 0
Wind_Speed_500mb
39 40 31 23 19 15 15 16 15 14 16 16 17 16 15 15 13 11 9 8 7 6 6 6 5 4 7 10 11 14 15 16 16 17 20 22 28 28 13 10 16 16 20
38 32 39 30 21 20 18 17 16 14 14 13 13 12 12 10 10 9 7 8 8 8 8 8 8 8 9 12 14 14 15 15 17 19 21 22 25 23 12 9 17 13 20
33 27 25 25 20 16 18 16 15 14 13 12 11 10 10 10 10 10 9 10 11 12 12 11 10 12 15 14 15 17 19 19 19 19 19 22 23 20 13 9 18 12 15
29 27 25 23 21 19 17 15 15 14 12 11 10 11 11 12 14 15 15 16 17 17 19 19 19 16 15 16 19 19 21 22 22 22 22 22 22 20 13 10 19 16 17
28 28 26 24 22 19 16 15 15 13 11 10 10 9 10 12 13 16 17 19 22 23 24 25 25 24 22 22 21 21 23 25 26 26 21 23 25 21 17 12 21 22 19
32 32 28 23 20 18 15 13 10 9 7 7 7 9 10 13 15 17 18 20 21 24 26 28 29 28 28 26 27 27 26 27 30 30 26 24 26 25 22 19 17 28 22
35 32 28 24 19 16 13 10 7 5 5 6 8 10 12 15 17 19 21 23 24 26 27 28 32 33 33 31 30 32 31 31 31 33 32 27 27 28 28 25 23 26 34
33 31 26 23 18 13 9 6 5 6 7 8 10 12 14 16 18 21 23 25 27 29 31 32 33 34 37 38 38 37 36 37 37 37 36 34 28 29 33 30 27 28 34
32 29 25 20 15 12 9 7 7 8 9 11 12 13 15 17 18 21 22 25 28 31 33 36 37 39 41 40 42 43 43 41 42 43 42 40 32 31 34 36 30 33 35
35 28 22 19 15 11 9 10 10 10 11 12 12 14 16 17 19 21 23 26 28 31 33 36 39 41 43 45 46 47 49 48 48 48 48 46 40 36 37 42 38 38 37
37 28 21 16 15 13 12 11 11 10 11 13 13 15 16 18 20 22 24 26 28 30 33 36 39 42 43 45 48 51 53 53 56 56 54 52 49 45 43 45 47 44 42
38 30 23 18 15 13 11 11 12 14 15 15 16 16 17 19 20 22 24 26 29 30 33 35 38 42 44 47 50 53 55 58 59 60 61 58 57 53 52 51 51 53 50
32 29 23 19 17 15 14 15 17 17 17 16 16 18 20 22 23 24 25 26 28 30 32 34 36 39 43 47 49 51 55 59 60 63 63 62 63 63 57 58 57 57 60
35 28 25 20 17 17 18 20 21 20 19 18 19 20 22 24 25 27 29 31 33 35 37 39 41 42 43 44 48 53 56 58 61 65 67 68 65 67 67 64 62 64 64
38 32 26 22 19 19 22 24 24 22 21 20 21 24 26 29 30 31 33 35 38 41 44 45 46 46 48 51 52 54 56 60 62 66 69 69 70 70 74 70 73 66 66
40 36 32 26 24 22 23 25 25 24 23 23 24 27 31 33 35 36 37 39 42 44 47 50 53 56 58 60 60 60 62 63 63 66 70 72 73 75 81 74 70 77 70
43 35 35 29 27 26 25 27 27 26 25 25 27 31 34 37 39 40 41 42 45 47 50 52 55 59 63 66 70 70 71 70 71 70 70 73 75 76 79 86 86 70 77
41 37 32 31 30 30 31 30 29 28 28 29 31 34 38 40 43 43 44 45 48 50 53 56 61 65 69 73 76 77 78 78 77 77 75 73 74 77 79 82 89 97 92
39 34 32 32 32 33 32 30 30 31 31 33 36 39 42 43 45 46 47 49 53 55 57 62 67 71 76 78 81 83 84 83 80 79 79 76 71 71 77 80 85 91 98
42 38 33 33 33 34 34 33 32 33 34 37 40 43 45 46 47 48 49 53 55 58 62 67 70 71 73 77 82 87 86 84 78 72 73 72 69 66 68 75 80 86 88
45 40 35 34 32 35 36 34 35 36 39 41 43 45 46 46 47 49 53 54 58 64 67 70 72 72 71 68 75 78 80 75 53 53 50 48 47 50 55 62 71 79 85
42 36 32 30 32 33 35 36 40 42 44 44 43 44 45 46 49 53 56 59 62 68 70 68 66 66 61 52 51 53 40 54 35 22 24 29 28 26 31 39 52 62 72
40 32 26 24 28 32 36 41 44 44 45 45 44 43 44 48 52 54 57 63 65 67 68 63 57 50 50 44 31 24 18 15 58 24 22 30 38 37 36 34 35 43 50
31 27 22 23 29 35 41 44 44 44 45 44 44 44 46 50 52 56 61 63 66 64 60 55 49 45 40 40 38 31 35 44 28 42 26 44 52 59 53 51 53 50 44
30 20 20 25 34 39 43 43 43 44 44 43 44 48 50 50 54 59 63 67 67 61 55 50 43 38 36 38 40 38 42 44 47 57 79 59 62 64 59 60 66 64 55
22 22 27 31 35 36 36 37 40 42 41 44 44 49 51 55 59 62 66 68 63 57 50 42 36 33 35 37 41 42 42 45 45 50 64 72 75 70 65 64 58 55 53
Wind_Direction_500mb
178 187 183 185 184 179 157 149 143 138 145 153 154 157 160 167 168 174 178 189 200 219 229 233 240 227 255 265 263 276 282 291 301 312 320 331 341 348 355 159 155 144 143
178 186 193 200 201 185 168 165 164 162 158 155 155 159 166 182 192 198 206 220 226 230 236 257 263 263 255 259 269 266 261 272 286 296 308 319 333 342 344 183 175 164 166
174 174 185 194 194 180 175 172 176 177 176 178 186 194 198 209 218 228 242 251 253 258 260 267 274 275 275 272 271 268 263 262 267 278 289 306 322 329 337 204 194 188 179
174 176 172 168 169 171 179 179 183 183 184 190 198 209 220 232 241 250 254 256 258 261 261 262 263 252 263 267 271 271 267 264 265 278 289 297 309 311 314 237 208 206 201
173 178 174 164 162 157 154 160 167 173 178 187 197 214 231 244 252 255 257 260 259 261 266 266 264 260 259 263 264 267 269 266 267 273 275 288 296 296 294 277 220 219 218
177 176 173 168 165 162 162 164 167 172 183 209 229 238 251 260 265 267 267 268 270 268 267 267 270 273 270 269 267 265 262 265 268 272 270 279 284 284 281 277 239 227 232
175 172 168 165 166 164 164 166 174 198 220 242 257 267 269 268 267 267 268 270 271 270 270 270 268 268 268 267 266 263 265 265 263 270 273 277 276 276 274 272 253 236 233
184 176 172 169 172 173 180 191 218 238 255 266 274 277 277 279 281 279 279 275 272 270 269 269 268 268 265 264 265 265 264 263 264 267 268 272 273 269 266 268 266 248 240
187 184 180 180 186 193 210 229 255 274 281 284 286 287 290 290 290 288 283 281 280 279 275 272 268 266 266 266 265 264 262 260 262 264 268 270 268 264 266 263 263 257 251
192 187 190 192 203 213 226 241 251 256 267 277 286 297 302 303 302 298 295 290 286 282 280 277 275 272 269 266 264 263 263 263 262 261 262 264 267 263 264 261 261 256 255
197 196 201 211 223 233 240 249 262 273 277 282 287 290 297 301 303 301 297 295 292 288 284 282 280 277 274 271 268 264 263 262 261 261 262 263 262 260 259 262 260 260 255
202 200 210 228 244 253 263 275 282 284 287 288 292 298 304 308 307 305 301 298 295 295 293 290 285 281 279 275 271 269 266 263 260 258 258 260 262 261 259 257 259 258 260
204 208 221 237 241 248 263 271 278 280 280 283 291 302 311 315 314 309 306 303 299 297 296 294 292 290 287 283 278 273 269 266 264 260 256 252 257 256 256 259 257 256 257
213 215 227 232 239 260 266 273 277 278 277 284 296 306 312 315 315 313 311 309 308 306 304 303 300 298 295 291 287 281 276 271 267 263 260 256 250 252 256 252 254 257 256
222 224 228 230 245 261 267 272 272 270 268 276 291 302 308 311 313 313 311 309 308 306 306 303 301 299 296 293 290 287 283 277 272 268 264 258 257 250 248 252 252 251 254
227 229 233 238 248 266 277 271 266 267 268 275 288 298 303 306 309 309 308 306 304 305 305 305 306 305 303 300 295 291 287 283 279 273 268 264 257 255 250 247 252 251 249
231 234 236 243 254 271 283 280 266 268 270 280 292 299 303 306 306 306 305 304 304 304 303 302 301 301 300 299 298 295 291 286 282 278 273 267 262 257 255 251 247 251 252
230 231 235 244 256 267 276 276 264 267 270 281 289 296 300 303 304 305 306 306 306 305 304 304 304 304 302 300 297 293 290 287 285 281 277 273 268 262 256 253 250 247 252
232 233 239 248 258 266 272 273 264 265 271 281 289 296 299 301 304 305 306 306 305 305 306 306 306 305 304 301 298 295 291 287 284 282 280 278 274 270 264 257 252 250 249
230 234 243 256 258 262 266 268 263 266 276 285 291 296 298 301 303 303 303 304 303 303 305 306 307 305 304 303 300 296 294 292 291 286 280 278 277 271 266 263 259 254 250
218 228 244 253 261 261 266 266 268 273 279 285 292 296 297 298 299 301 302 302 303 305 306 306 305 303 302 302 303 299 295 298 299 286 284 281 276 269 263 259 259 258 254
220 231 243 254 254 261 266 270 271 278 284 289 293 293 295 298 301 303 302 302 303 303 302 301 300 299 297 303 307 313 313 309 286 280 281 276 268 274 265 261 258 259 259
218 236 248 249 257 264 268 270 274 280 286 292 295 295 297 297 299 299 300 302 303 303 302 301 297 294 294 299 304 293 315 304 318 318 256 257 265 271 267 268 265 269 263
219 216 224 247 260 266 268 272 277 281 289 295 294 295 296 298 300 301 302 303 304 303 299 297 293 286 284 288 289 278 272 280 300 311 296 280 276 280 274 270 272 273 274
193 210 246 263 271 272 270 271 273 280 288 291 294 297 300 301 303 305 306 306 305 300 296 293 288 284 279 281 281 285 282 281 280 279 290 302 303 304 296 282 279 276 270
208 251 268 276 280 274 268 268 273 279 284 290 296 300 303 305 307 307 307 306 302 299 297 294 289 283 283 281 278 276 276 278 277 279 285 293 296 304 302 301 298 290 282
Wind_Speed_850mb
39 40 31 23 19 15 15 16 15 14 16 16 17 16 15 15 13 11 9 8 7 6 6 6 5 4 7 10 11 14 15 16 16 17 20 22 28 28 13 10 16 16 20
38 32 39 30 21 20 18 17 16 14 14 13 13 12 12 10 10 9 7 8 8 8 8 8 8 8 9 12 14 14 15 15 17 19 21 22 25 23 12 9 17 13 20
33 27 25 25 20 16 18 16 15 14 13 12 11 10 10 10 10 10 9 10 11 12 12 11 10 12 15 14 15 17 19 19 19 19 19 22 23 20 13 9 18 12 15
29 27 25 23 21 19 17 15 15 14 12 11 10 11 11 12 14 15 15 16 17 17 19 19 19 16 15 16 19 19 21 22 22 22 22 22 22 20 13 10 19 16 17
28 28 26 24 22 19 16 15 15 13 11 10 10 9 10 12 13 16 17 19 22 23 24 25 25 24 22 22 21 21 23 25 26 26 21 23 25 21 17 12 21 22 19
32 32 28 23 20 18 15 13 10 9 7 7 7 9 10 13 15 17 18 20 21 24 26 28 29 28 28 26 27 27 26 27 30 30 26 24 26 25 22 19 17 28 22
35 32 28 24 19 16 13 10 7 5 5 6 8 10 12 15 17 19 21 23 24 26 27 28 32 33 33 31 30 32 31 31 31 33 32 27 27 28 28 25 23 26 34
33 31 26 23 18 13 9 6 5 6 7 8 10 12 14 16 18 21 23 25 27 29 31 32 33 34 37 38 38 37 36 37 37 37 36 34 28 29 33 30 27 28 34
32 29 25 20 15 12 9 7 7 8 9 11 12 13 15 17 18 21 22 25 28 31 33 36 37 39 41 40 42 43 43 41 42 43 42 40 32 31 34 36 30 33 35
35 28 22 19 15 11 9 10 10 10 11 12 12 14 16 17 19 21 23 26 28 31 33 36 39 41 43 45 46 47 49 48 48 48 48 46 40 36 37 42 38 38 37
37 28 21 16 15 13 12 11 11 10 11 13 13 15 16 18 20 22 24 26 28 30 33 36 39 42 43 45 48 51 53 53 56 56 54 52 49 45 43 45 47 44 42
38 30 23 18 15 13 11 11 12 14 15 15 16 16 17 19 20 22 24 26 29 30 33 35 38 42 44 47 50 53 55 58 59 60 61 58 57 53 52 51 51 53 50
32 29 23 19 17 15 14 15 17 17 17 16 16 18 20 22 23 24 25 26 28 30 32 34 36 39 43 47 49 51 55 59 60 63 63 62 63 63 57 58 57 57 60
35 28 25 20 17 17 18 20 21 20 19 18 19 20 22 24 25 27 29 31 33 35 37 39 41 42 43 44 48 53 56 58 61 65 67 68 65 67 67 64 62 64 64
38 32 26 22 19 19 22 24 24 22 21 20 21 24 26 29 30 31 33 35 38 41 44 45 46 46 48 51 52 54 56 60 62 66 69 69 70 70 74 70 73 66 66
40 36 32 26 24 22 23 25 25 24 23 23 24 27 31 33 35 36 37 39 42 44 47 50 53 56 58 60 60 60 62 63 63 66 70 72 73 75 81 74 70 77 70
43 35 35 29 27 26 25 27 27 26 25 25 27 31 34 37 39 40 41 42 45 47 50 52 55 59 63 66 70 70 71 70 71 70 70 73 75 76 79 86 86 70 77
41 37 32 31 30 30 31 30 29 28 28 29 31 34 38 40 43 43 44 45 48 50 53 56 61 65 69 73 76 77 78 78 77 77 75 73 74 77 79 82 89 97 92
39 34 32 32 32 33 32 30 30 31 31 33 36 39 42 43 45 46 47 49 53 55 57 62 67 71 76 78 81 83 84 83 80 79 79 76 71 71 77 80 85 91 98
42 38 33 33 33 34 34 33 32 33 34 37 40 43 45 46 47 48 49 53 55 58 62 67 70 71 73 77 82 87 86 84 78 72 73 72 69 66 68 75 80 86 88
45 40 35 34 32 35 36 34 35 36 39 41 43 45 46 46 47 49 53 54 58 64 67 70 72 72 71 68 75 78 80 75 53 53 50 48 47 50 55 62 71 79 85
42 36 32 30 32 33 35 36 40 42 44 44 43 44 45 46 49 53 56 59 62 68 70 68 66 66 61 52 51 53 40 54 35 22 24 29 28 26 31 39 52 62 72
40 32 26 24 28 32 36 41 44 44 45 45 44 43 44 48 52 54 57 63 65 67 68 63 57 50 50 44 31 24 18 15 58 24 22 30 38 37 36 34 35 43 50
31 27 22 23 29 35 41 44 44 44 45 44 44 44 46 50 52 56 61 63 66 64 60 55 49 45 40 40 38 31 35 44 28 42 26 44 52 59 53 51 53 50 44
30 20 20 25 34 39 43 43 43 44 44 43 44 48 50 50 54 59 63 67 67 61 55 50 43 38 36 38 40 38 42 44 47 57 79 59 62 64 59 60 66 64 55
22 22 27 31 35 36 36 37 40 42 41 44 44 49 51 55 59 62 66 68 63 57 50 42 36 33 35 37 41 42 42 45 45 50 64 72 75 70 65 64 58 55 53
Wind_Direction_850mb
178 187 183 185 184 179 157 149 143 138 145 153 154 157 160 167 168 174 178 189 200 219 229 233 240 227 255 265 263 276 282 291 301 312 320 331 341 348 355 159 155 144 143
178 186 193 200 201 185 168 165 164 162 158 155 155 159 166 182 192 198 206 220 226 230 236 257 263 263 255 259 269 266 261 272 286 296 308 319 333 342 344 183 175 164 166
174 174 185 194 194 180 175 172 176 177 176 178 186 194 198 209 218 228 242 251 253 258 260 267 274 275 275 272 271 268 263 262 267 278 289 306 322 329 337 204 194 188 179
174 176 172 168 169 171 179 179 183 183 184 190 198 209 220 232 241 250 254 256 258 261 261 262 263 252 263 267 271 271 267 264 265 278 289 297 309 311 314 237 208 206 201
173 178 174 164 162 157 154 160 167 173 178 187 197 214 231 244 252 255 257 260 259 261 266 266 264 260 259 263 264 267 269 266 267 273 275 288 296 296 294 277 220 219 218
177 176 173 168 165 162 162 164 167 172 183 209 229 238 251 260 265 267 267 268 270 268 267 267 270 273 270 269 267 265 262 265 268 272 270 279 284 284 281 277 239 227 232
175 172 168 165 166 164 164 166 174 198 220 242 257 267 269 268 267 267 268 270 271 270 270 270 268 268 268 267 266 263 265 265 263 270 273 277 276 276 274 272 253 236 233
184 176 172 169 172 173 180 191 218 238 255 266 274 277 277 279 281 279 279 275 272 270 269 269 268 268 265 264 265 265 264 263 264 267 268 272 273 269 266 268 266 248 240
187 184 180 180 186 193 210 229 255 274 281 284 286 287 290 290 290 288 283 281 280 279 275 272 268 266 266 266 265 264 262 260 262 264 268 270 268 264 266 263 263 257 251
192 187 190 192 203 213 226 241 251 256 267 277 286 297 302 303 302 298 295 290 286 282 280 277 275 272 269 266 264 263 263 263 262 261 262 264 267 263 264 261 261 256 255
197 196 201 211 223 233 240 249 262 273 277 282 287 290 297 301 303 301 297 295 292 288 284 282 280 277 274 271 268 264 263 262 261 261 262 263 262 260 259 262 260 260 255
202 200 210 228 244 253 263 275 282 284 287 288 292 298 304 308 307 305 301 298 295 295 293 290 285 281 279 275 271 269 266 263 260 258 258 260 262 261 259 257 259 258 260
204 208 221 237 241 248 263 271 278 280 280 283 291 302 311 315 314 309 306 303 299 297 296 294 292 290 287 283 278 273 269 266 264 260 256 252 257 256 256 259 257 256 257
213 215 227 232 239 260 266 273 277 278 277 284 296 306 312 315 315 313 311 309 308 306 304 303 300 298 295 291 287 281 276 271 267 263 260 256 250 252 256 252 254 257 256
222 224 228 230 245 261 267 272 272 270 268 276 291 302 308 311 313 313 311 309 308 306 306 303 301 299 296 293 290 287 283 277 272 268 264 258 257 250 248 252 252 251 254
227 229 233 238 248 266 277 271 266 267 268 275 288 298 303 306 309 309 308 306 304 305 305 305 306 305 303 300 295 291 287 283 279 273 268 264 257 255 250 247 252 251 249
231 234 236 243 254 271 283 280 266 268 270 280 292 299 303 306 306 306 305 304 304 304 303 302 301 301 300 299 298 295 291 286 282 278 273 267 262 257 255 251 247 251 252
230 231 235 244 256 267 276 276 264 267 270 281 289 296 300 303 304 305 306 306 306 305 304 304 304 304 302 300 297 293 290 287 285 281 277 273 268 262 256 253 250 247 252
232 233 239 248 258 266 272 273 264 265 271 281 289 296 299 301 304 305 306 306 305 305 306 306 306 305 304 301 298 295 291 287 284 282 280 278 274 270 264 257 252 250 249
230 234 243 256 258 262 266 268 263 266 276 285 291 296 298 301 303 303 303 304 303 303 305 306 307 305 304 303 300 296 294 292 291 286 280 278 277 271 266 263 259 254 250
218 228 244 253 261 261 266 266 268 273 279 285 292 296 297 298 299 301 302 302 303 305 306 306 305 303 302 302 303 299 295 298 299 286 284 281 276 269 263 259 259 258 254
220 231 243 254 254 261 266 270 271 278 284 289 293 293 295 298 301 303 302 302 303 303 302 301 300 299 297 303 307 313 313 309 286 280 281 276 268 274 265 261 258 259 259
218 236 248 249 257 264 268 270 274 280 286 292 295 295 297 297 299 299 300 302 303 303 302 301 297 294 294 299 304 293 315 304 318 318 256 257 265 271 267 268 265 269 263
219 216 224 247 260 266 268 272 277 281 289 295 294 295 296 298 300 301 302 303 304 303 299 297 293 286 284 288 289 278 272 280 300 311 296 280 276 280 274 270 272 273 274
193 210 246 263 271 272 270 271 273 280 288 291 294 297 300 301 303 305 306 306 305 300 296 293 288 284 279 281 281 285 282 281 280 279 290 302 303 304 296 282 279 276 270
208 251 268 276 280 274 268 268 273 279 284 290 296 300 303 305 307 307 307 306 302 299 297 294 289 283 283 281 278 276 276 278 277 279 285 293 296 304 302 301 298 290 282